RH
57 52 41 40 44 48 46 45 42 43 45 51 52 47 42 35 32 29 35 76 100 91 75 55 38 32 31 29 27 21 21 20 20 21 20 20 19 21 32 32 39 29 24
52 55 45 41 46 43 36 35 35 35 37 34 40 42 37 37 35 38 41 65 88 90 84 57 39 35 37 34 28 24 22 21 22 21 21 21 20 21 28 34 36 28 24
51 56 58 46 44 39 34 34 33 30 30 27 31 30 32 36 39 43 43 47 64 71 56 45 41 39 39 36 31 27 25 23 23 22 22 22 22 21 24 31 32 25 27
57 56 56 50 45 46 39 36 33 31 29 29 29 30 28 28 35 42 46 49 60 70 56 48 44 43 44 42 36 30 27 25 23 23 25 21 21 24 23 30 29 24 28
70 62 48 50 56 54 46 41 36 35 36 32 30 28 28 28 34 44 47 56 66 64 54 50 48 46 49 47 42 34 29 24 23 26 28 21 23 24 24 25 31 28 31
76 60 53 57 62 51 45 43 44 43 41 36 33 29 26 26 35 44 50 62 66 65 55 53 51 49 53 51 45 37 32 30 27 29 27 25 27 28 30 29 31 37 37
78 70 67 67 60 50 48 46 45 44 39 37 33 28 24 26 37 46 54 65 72 66 58 54 52 50 54 57 53 46 38 30 30 31 30 29 33 35 35 31 38 40 39
79 75 78 79 65 59 54 46 45 45 43 40 36 30 24 25 39 50 57 61 61 62 59 56 53 55 56 60 60 53 37 33 35 36 31 30 33 36 35 36 43 40 42
81 77 77 79 67 61 56 53 52 58 57 46 40 31 25 24 34 48 58 55 53 55 62 58 56 55 61 66 67 48 42 41 42 41 39 37 35 37 40 39 46 40 45
82 78 87 90 71 68 60 64 76 80 56 53 47 34 28 24 28 37 48 52 51 56 60 58 55 59 66 69 58 55 51 50 53 48 47 46 48 48 46 47 48 47 50
85 85 84 81 76 80 96 89 94 85 66 55 55 48 33 30 27 31 40 46 50 55 57 52 52 60 63 59 58 49 55 59 56 52 53 56 52 51 48 50 52 52 51
94 79 83 81 81 85 95 100 100 85 67 67 66 60 42 36 34 33 37 43 48 46 46 48 55 62 59 52 56 61 61 63 60 60 58 59 51 51 50 54 56 55 60
100 99 86 82 80 75 84 88 96 93 94 95 76 68 65 43 40 44 44 47 47 46 43 48 58 62 63 64 66 64 66 65 60 57 55 56 56 55 52 56 57 55 61
99 95 94 92 79 67 64 65 66 94 100 100 94 78 78 74 52 44 46 52 60 62 59 61 62 66 69 66 64 62 66 60 59 58 55 56 58 60 59 58 61 63 65
100 97 96 94 91 78 77 74 65 66 78 90 100 97 88 81 76 71 51 47 46 56 61 66 69 66 66 66 66 68 68 64 66 64 64 62 64 65 63 62 65 67 65
98 98 93 97 96 90 79 77 77 75 71 79 94 88 85 80 78 77 78 74 60 55 55 60 60 63 64 65 72 75 72 71 71 72 72 72 72 72 66 72 70 70 79
100 100 92 91 96 94 88 88 80 83 82 83 99 94 81 75 80 81 75 74 76 76 74 72 71 71 71 70 74 75 78 77 76 78 81 85 84 75 77 77 70 75 91
100 100 100 100 100 100 91 92 100 100 100 100 95 93 88 88 84 74 75 76 75 72 72 73 74 75 76 76 76 80 83 84 85 88 88 91 85 83 79 76 71 84 95
100 100 100 100 100 98 100 100 100 100 100 100 100 100 100 100 100 82 79 74 75 73 73 76 75 73 74 74 76 82 83 89 96 99 99 94 88 76 72 73 87 92 96
100 100 100 100 100 97 97 100 100 94 85 81 90 94 77 67 73 79 83 99 100 98 99 99 94 87 86 88 91 93 92 98 100 100 98 92 82 75 84 94 92 100 93
100 100 100 100 100 100 100 100 100 100 92 79 61 54 54 60 66 77 91 100 100 100 100 100 99 100 98 99 100 100 100 100 100 100 100 99 91 88 98 100 100 95 88
76 92 100 100 100 100 100 100 100 100 100 95 82 76 71 58 61 70 81 81 75 92 100 100 100 100 100 100 100 100 100 100 100 100 100 100 99 100 100 99 90 84 83
63 62 90 100 100 100 100 100 100 100 100 99 100 96 89 85 93 89 92 91 92 88 100 100 100 100 100 100 100 96 98 100 100 100 100 100 100 98 97 87 81 79 83
84 71 66 88 100 100 100 100 100 100 100 100 100 100 100 100 91 91 89 92 91 92 100 100 100 100 100 100 100 100 100 100 100 100 100 100 100 100 96 93 88 86 84
100 98 90 87 89 100 100 100 100 100 100 100 100 100 100 100 100 100 100 100 100 100 100 100 100 100 100 100 100 100 100 100 100 100 100 100 100 100 100 96 87 86 80
92 100 100 100 100 100 99 100 100 100 100 100 100 100 100 100 100 100 100 100 100 100 100 100 100 100 100 100 100 100 100 100 100 100 100 100 100 100 95 92 88 80 80
Wind_Speed
46 45 46 44 41 40 39 39 38 37 35 34 32 32 31 31 27 28 28 28 25 21 21 22 25 25 24 22 21 22 22 23 22 24 28 31 32 33 36 38 40 43 46
48 46 45 44 42 43 40 39 38 38 36 34 34 33 30 29 27 28 28 28 28 24 24 23 26 26 27 24 23 24 24 25 25 28 31 33 34 35 38 40 42 46 48
47 46 44 44 43 44 42 38 37 35 34 34 31 31 29 30 28 30 31 31 30 27 27 25 28 29 28 27 26 26 27 28 28 31 33 34 36 38 40 42 44 47 50
47 46 42 41 42 42 42 39 36 33 33 32 32 31 30 30 30 32 32 32 29 29 28 29 30 30 29 29 29 30 30 31 31 34 35 35 37 40 43 44 47 49 52
46 44 43 41 40 40 40 38 36 33 32 32 32 31 31 30 30 32 32 32 30 31 29 30 31 30 31 30 32 34 33 33 34 36 37 37 39 43 46 48 50 52 54
45 44 42 42 39 39 38 37 35 33 32 31 31 32 30 30 30 32 32 31 31 30 31 31 32 32 32 33 36 37 37 36 37 38 39 39 43 45 49 51 53 54 56
46 44 42 41 37 36 36 36 35 34 33 32 33 32 30 30 30 31 31 31 31 31 33 34 33 34 35 36 39 40 40 39 39 41 42 44 46 48 51 52 54 57 58
50 46 43 41 38 36 35 36 36 35 34 34 35 32 31 31 30 31 31 32 31 33 34 36 35 36 37 39 41 42 41 41 42 43 46 47 50 51 53 54 55 58 60
51 48 45 43 42 39 38 37 36 35 36 36 35 32 32 32 33 33 34 35 35 35 37 38 38 39 39 40 42 41 42 43 45 47 49 51 53 54 56 56 58 61 62
53 53 49 47 45 42 41 38 38 37 35 35 34 33 32 33 35 36 36 37 37 37 39 39 40 40 42 43 41 42 43 45 47 50 53 54 56 57 57 59 61 63 65
57 56 51 48 46 44 44 42 40 40 39 35 36 34 35 33 34 36 37 38 38 39 40 41 41 41 41 41 43 44 45 48 51 54 56 57 56 58 59 61 64 65 67
59 55 54 51 49 48 47 45 44 42 41 40 36 37 35 35 34 35 36 38 39 41 42 41 41 42 43 43 44 46 47 50 53 56 58 58 60 61 62 64 66 67 70
61 57 56 54 53 51 50 50 46 46 45 42 39 39 38 38 38 37 38 39 41 42 42 43 42 43 44 46 47 49 51 53 56 59 59 60 62 64 66 67 69 70 72
67 63 60 57 57 56 52 50 49 47 46 45 42 40 42 40 40 41 40 42 43 44 44 44 45 47 48 50 52 53 55 58 60 61 61 63 65 68 69 71 72 73 75
74 70 67 63 60 59 57 54 53 50 50 47 46 44 43 44 44 43 43 43 44 46 46 46 47 50 52 53 54 56 58 61 62 64 64 67 69 71 73 75 75 76 76
76 73 70 66 64 62 62 60 58 55 53 51 50 49 47 46 47 47 47 47 48 48 49 50 52 53 55 57 59 60 62 64 66 65 68 71 74 75 77 77 78 77 76
79 77 75 72 68 66 65 64 62 60 58 56 56 55 51 50 50 50 51 52 52 53 53 54 55 56 57 59 62 64 67 68 68 69 72 75 77 80 80 80 79 77 78
79 76 77 72 69 65 64 64 62 59 60 59 58 57 57 56 55 56 56 56 56 57 58 58 59 61 63 64 66 67 69 70 71 72 76 79 82 82 81 83 79 79 82
76 76 76 75 72 68 64 58 59 59 58 57 55 56 57 59 60 61 59 58 58 59 61 62 65 65 67 69 69 71 72 75 74 76 80 83 84 84 84 81 82 83 84
81 80 77 77 75 74 72 69 69 68 67 64 61 59 60 61 61 61 60 61 62 64 65 66 68 69 70 72 72 73 74 74 77 80 84 86 86 85 84 83 83 84 88
92 85 82 78 78 76 74 72 71 74 69 70 70 70 66 64 64 65 67 68 67 67 70 71 71 72 74 75 73 75 75 78 82 85 88 88 88 85 83 83 87 90 92
96 94 89 85 81 79 77 73 73 73 74 73 70 69 67 70 70 70 70 69 69 71 74 75 75 75 74 75 75 76 80 83 86 86 90 89 88 85 87 89 92 95 97
100 98 95 90 86 84 82 79 76 74 75 76 73 73 71 71 71 71 72 70 68 68 70 72 72 73 74 77 82 85 84 84 86 86 86 89 91 91 93 97 99 100 101
103 100 98 96 91 88 87 84 82 80 79 75 74 76 76 74 76 73 72 75 80 81 78 75 75 77 81 84 86 87 87 86 88 87 87 89 93 97 100 101 103 104 106
103 103 100 100 100 97 96 93 89 86 84 83 82 81 78 81 81 79 82 83 83 83 83 81 82 84 85 86 86 87 89 89 92 92 92 95 96 101 103 106 108 109 112
104 104 104 104 104 103 102 100 97 95 91 89 87 85 80 80 82 84 86 88 89 89 89 89 90 91 93 91 91 91 93 96 96 97 98 99 100 103 108 111 112 114 116
Wind_Direction
236 239 241 241 242 244 248 250 256 259 259 260 260 260 266 271 274 275 272 273 281 281 278 283 282 283 283 280 277 281 288 293 298 305 309 312 316 319 322 326 327 331 332
236 238 240 241 244 245 248 251 255 258 260 262 263 263 267 270 272 268 272 274 278 283 281 280 278 279 279 277 275 279 285 291 297 301 307 311 314 318 320 324 326 330 332
235 238 242 242 240 243 248 251 255 258 258 260 263 266 267 269 270 269 270 272 273 273 275 271 272 274 276 277 275 279 283 289 293 298 304 310 314 315 319 322 324 327 330
235 238 240 235 236 239 244 248 252 256 258 261 262 266 267 268 267 267 269 269 271 269 268 268 270 274 278 278 277 278 282 287 292 297 304 309 311 314 317 321 324 326 328
233 234 235 232 237 241 244 247 249 254 260 264 266 267 269 269 265 265 266 268 269 267 262 264 269 273 278 278 278 280 282 288 293 299 304 308 310 313 317 319 323 327 330
233 232 234 234 238 240 244 246 249 254 257 261 264 267 265 266 264 263 263 265 266 263 262 264 269 273 276 278 279 282 285 289 294 299 304 307 311 314 316 320 324 327 330
235 234 235 237 237 239 242 245 248 253 258 261 263 266 264 264 262 261 263 262 264 262 263 266 269 273 276 278 280 281 286 290 295 301 304 305 310 312 315 319 323 326 327
234 233 232 236 236 239 244 246 248 253 258 262 265 265 265 263 261 261 262 263 264 264 265 268 272 275 277 279 282 285 289 293 298 302 302 304 308 312 315 319 322 325 325
233 230 232 235 239 242 244 246 248 253 259 260 262 263 266 264 262 260 261 262 264 263 266 269 272 276 277 279 283 287 292 297 301 303 304 305 307 311 315 319 322 323 325
234 232 235 237 240 242 245 246 250 255 257 260 260 261 264 263 261 260 262 263 262 263 265 269 273 275 277 281 285 289 296 299 302 303 305 307 309 312 317 318 321 321 324
234 235 235 237 241 240 244 247 250 254 260 262 260 261 262 263 263 262 262 263 264 265 267 270 272 274 278 280 285 291 297 300 301 302 304 307 310 313 315 316 319 321 322
234 235 236 237 241 243 244 248 248 252 258 261 265 262 260 263 263 264 262 262 264 266 268 270 272 275 278 283 287 291 294 297 299 301 304 307 309 311 313 314 317 319 320
235 236 236 238 240 244 245 247 249 249 253 257 262 264 260 261 263 262 264 265 267 269 271 272 275 278 282 285 288 290 293 297 298 301 305 307 309 311 312 314 316 318 318
236 239 238 240 242 246 246 247 248 250 253 253 259 262 261 261 263 264 264 266 269 270 272 274 276 278 280 283 286 289 293 296 299 302 304 307 309 311 312 313 315 317 318
236 239 240 240 242 244 247 249 250 250 252 255 255 259 262 262 262 265 265 267 270 272 274 275 277 279 282 283 287 290 294 297 299 301 302 306 308 309 311 313 314 316 317
237 240 242 241 243 244 247 248 251 251 253 254 256 257 261 262 263 264 267 268 269 270 273 276 278 282 285 285 289 293 296 298 298 300 302 306 307 309 311 312 315 315 315
241 243 243 242 243 245 248 248 250 252 253 254 254 256 261 265 264 265 266 267 270 272 273 276 280 283 286 288 291 293 295 297 298 298 302 305 307 309 310 312 313 313 312
240 241 244 243 241 242 246 247 246 248 252 253 255 257 259 263 265 268 268 268 270 272 275 279 281 284 287 289 291 293 295 297 297 299 301 304 306 307 310 310 311 311 310
238 240 241 242 244 243 242 240 246 246 247 251 255 258 261 263 266 269 268 269 271 273 275 279 281 283 285 288 289 291 294 296 297 298 301 303 305 307 308 308 309 308 308
236 237 240 242 244 244 244 245 246 247 245 245 247 250 255 260 264 265 269 272 274 276 278 279 280 282 284 285 289 291 294 295 296 298 301 302 303 306 306 305 306 305 307
238 239 239 239 244 244 244 247 250 250 252 256 257 257 256 257 260 262 267 270 272 274 276 278 281 283 285 287 289 292 293 294 297 299 300 302 303 304 303 302 303 305 306
239 240 242 241 241 244 244 244 249 251 254 256 256 260 261 261 260 262 265 267 271 274 277 279 280 283 287 289 290 292 293 296 297 299 300 300 300 300 300 301 302 304 306
240 240 240 241 241 241 243 244 244 247 253 254 255 260 259 259 260 262 265 267 270 274 278 281 282 283 283 286 289 292 293 293 295 297 296 297 298 299 300 301 303 304 305
239 241 241 241 241 242 241 243 245 245 247 251 254 257 257 260 261 262 263 268 272 275 277 278 278 280 283 287 289 290 290 292 292 293 293 294 295 297 298 301 302 303 306
238 241 241 242 242 240 240 242 245 247 248 248 252 256 258 260 260 261 265 269 272 275 277 275 278 280 283 284 285 287 289 291 291 293 293 293 296 297 300 300 301 304 306
237 239 241 242 243 243 244 244 244 246 248 249 251 253 256 259 261 262 265 268 270 272 273 274 276 279 281 282 283 284 286 288 291 292 293 296 297 298 298 300 302 304 306